Time,TemperatureF,DewpointF,PressureIn,WindDirection,WindDirectionDegrees,WindSpeedMPH,WindSpeedGustMPH,Humidity,HourlyPrecipIn,Conditions,Clouds,dailyrainin,SoftwareType,DateUTC
2013-03-27 00:00:00,35.3,30.7,31.17,NW,304,0.0,0.0,83,0.00,,---,0.00,VWS V13.01,2013-03-27 04:00:00,
2013-03-27 00:30:00,35.1,31.0,31.15,North,357,0.0,0.0,85,0.00,,---,0.00,VWS V13.01,2013-03-27 04:30:00,
2013-03-27 01:00:00,34.7,31.0,31.15,WNW,287,0.0,0.0,86,0.00,,---,0.00,VWS V13.01,2013-03-27 05:00:00,
2013-03-27 01:30:00,34.5,30.5,31.11,West,270,0.0,0.0,85,0.00,,---,0.00,VWS V13.01,2013-03-27 05:30:00,
2013-03-27 02:00:00,34.0,29.7,31.14,NW,311,0.0,0.0,84,0.00,,---,0.00,VWS V13.01,2013-03-27 06:00:00,
2013-03-27 02:30:00,33.7,29.4,31.13,WNW,303,0.0,0.0,84,0.00,,---,0.00,VWS V13.01,2013-03-27 06:30:00,
2013-03-27 03:00:00,33.3,29.3,31.14,WNW,303,0.0,0.0,85,0.00,,---,0.00,VWS V13.01,2013-03-27 07:00:00,
2013-03-27 03:30:00,32.6,29.2,31.14,NW,305,0.0,0.0,87,0.00,,---,0.00,VWS V13.01,2013-03-27 07:30:00,
2013-03-27 04:00:00,32.1,29.0,31.17,NW,305,0.0,0.0,88,0.00,,---,0.00,VWS V13.01,2013-03-27 08:00:00,
2013-03-27 04:30:00,31.4,28.5,31.16,WNW,289,0.0,0.0,89,0.00,,---,0.00,VWS V13.01,2013-03-27 08:30:00,
2013-03-27 05:00:00,30.9,28.3,31.12,WNW,289,0.0,0.0,90,0.00,,---,0.00,VWS V13.01,2013-03-27 09:00:00,
2013-03-27 05:30:00,30.4,27.8,31.18,WNW,289,0.0,0.0,90,0.00,,---,0.00,VWS V13.01,2013-03-27 09:30:00,
2013-03-27 06:00:00,30.4,28.1,31.11,WNW,289,0.0,0.0,91,0.00,,---,0.00,VWS V13.01,2013-03-27 10:00:00,
2013-03-27 06:30:00,30.2,28.2,31.13,WNW,289,0.0,0.0,92,0.00,,---,0.00,VWS V13.01,2013-03-27 10:30:00,
2013-03-27 07:00:00,30.3,28.3,31.12,WNW,289,0.0,0.0,92,0.00,,---,0.00,VWS V13.01,2013-03-27 11:00:00,
2013-03-27 07:30:00,30.2,28.4,31.16,WNW,289,0.0,0.0,93,0.00,,---,0.00,VWS V13.01,2013-03-27 11:30:00,
2013-03-27 08:00:00,30.8,29.0,31.17,WNW,289,0.0,0.0,93,0.00,,---,0.00,VWS V13.01,2013-03-27 12:00:00,
2013-03-27 08:30:00,32.3,30.2,31.17,WNW,289,0.0,0.0,92,0.00,,---,0.00,VWS V13.01,2013-03-27 12:30:00,
2013-03-27 09:00:00,34.8,30.5,31.13,WNW,298,0.0,0.0,84,0.00,,---,0.00,VWS V13.01,2013-03-27 13:00:00,
2013-03-27 09:30:00,37.5,30.0,31.17,NW,317,5.0,6.0,74,0.00,,---,0.00,VWS V13.01,2013-03-27 13:30:00,
2013-03-27 10:00:00,39.6,30.6,31.17,NNW,339,2.0,8.0,70,0.00,,---,0.00,VWS V13.01,2013-03-27 14:00:00,
2013-03-27 10:30:00,41.9,31.0,31.18,West,270,0.0,8.0,65,0.00,,---,0.00,VWS V13.01,2013-03-27 14:30:00,
2013-03-27 11:00:00,43.0,30.1,31.18,West,266,0.0,10.0,60,0.00,,---,0.00,VWS V13.01,2013-03-27 15:00:00,
2013-03-27 11:30:00,45.6,30.8,31.14,NW,320,0.0,7.0,56,0.00,,---,0.00,VWS V13.01,2013-03-27 15:30:00,
2013-03-27 12:00:00,47.0,29.8,31.19,WNW,285,0.0,7.0,51,0.00,,---,0.00,VWS V13.01,2013-03-27 16:00:00,
2013-03-27 12:30:00,48.7,31.4,31.20,WNW,302,6.0,9.0,51,0.00,,---,0.00,VWS V13.01,2013-03-27 16:30:00,
2013-03-27 13:00:00,48.7,31.9,31.11,WNW,293,0.0,11.0,52,0.00,,---,0.00,VWS V13.01,2013-03-27 17:00:00,
2013-03-27 13:30:00,47.6,30.9,31.08,WNW,292,0.0,9.0,52,0.00,,---,0.00,VWS V13.01,2013-03-27 17:30:00,
2013-03-27 14:00:00,48.8,31.5,31.05,NW,307,0.0,7.0,51,0.00,,---,0.00,VWS V13.01,2013-03-27 18:00:00,
2013-03-27 14:30:00,48.1,31.8,31.11,West,271,0.0,8.0,53,0.00,,---,0.00,VWS V13.01,2013-03-27 18:30:00,
2013-03-27 15:00:00,48.2,31.4,31.04,NW,306,0.0,9.0,52,0.00,,---,0.00,VWS V13.01,2013-03-27 19:00:00,
2013-03-27 15:30:00,48.1,31.8,31.05,West,274,0.0,9.0,53,0.00,,---,0.00,VWS V13.01,2013-03-27 19:30:00,
2013-03-27 16:00:00,49.2,31.9,30.99,West,276,0.0,7.0,51,0.00,,---,0.00,VWS V13.01,2013-03-27 20:00:00,
2013-03-27 16:30:00,50.2,32.3,31.04,NW,309,0.0,8.0,50,0.00,,---,0.00,VWS V13.01,2013-03-27 20:30:00,
2013-03-27 17:00:00,48.7,30.9,31.04,West,260,0.0,9.0,50,0.00,,---,0.00,VWS V13.01,2013-03-27 21:00:00,
2013-03-27 17:30:00,50.6,31.1,30.96,NW,319,5.0,9.0,47,0.00,,---,0.00,VWS V13.01,2013-03-27 21:30:00,
2013-03-27 18:00:00,50.3,30.3,30.94,WNW,287,0.0,9.0,46,0.00,,---,0.00,VWS V13.01,2013-03-27 22:00:00,
2013-03-27 18:30:00,46.1,28.0,30.97,NNW,333,0.0,10.0,49,0.00,,---,0.00,VWS V13.01,2013-03-27 22:30:00,
2013-03-27 19:00:00,43.1,27.1,30.99,North,356,2.0,9.0,53,0.00,,---,0.00,VWS V13.01,2013-03-27 23:00:00,
2013-03-27 19:30:00,41.1,25.7,30.96,NNW,335,0.0,7.0,54,0.00,,---,0.00,VWS V13.01,2013-03-27 23:30:00,
2013-03-27 20:00:00,39.7,25.3,30.96,WNW,285,0.0,7.0,56,0.00,,---,0.00,VWS V13.01,2013-03-28 00:00:00,
2013-03-27 20:30:00,38.6,24.7,30.92,NW,319,0.0,0.0,57,0.00,,---,0.00,VWS V13.01,2013-03-28 00:30:00,
2013-03-27 21:00:00,37.8,25.2,30.98,West,279,0.0,0.0,60,0.00,,---,0.00,VWS V13.01,2013-03-28 01:00:00,
2013-03-27 21:30:00,37.0,25.6,31.02,West,275,0.0,0.0,63,0.00,,---,0.00,VWS V13.01,2013-03-28 01:30:00,
2013-03-27 22:00:00,36.0,25.8,31.02,WNW,299,0.0,0.0,66,0.00,,---,0.00,VWS V13.01,2013-03-28 02:00:00,
2013-03-27 22:30:00,35.3,26.2,31.03,SW,234,0.0,0.0,69,0.00,,---,0.00,VWS V13.01,2013-03-28 02:30:00,
2013-03-27 23:00:00,34.6,26.2,31.06,SW,232,0.0,0.0,71,0.00,,---,0.00,VWS V13.01,2013-03-28 03:00:00,
2013-03-27 23:30:00,33.7,26.3,31.10,SW,232,0.0,0.0,74,0.00,,---,0.00,VWS V13.01,2013-03-28 03:30:00,